This demonstration page uses our WeatherBlox Daily Observations layout. Learn more.

Left ArrowRight Arrow

Hourly Observations for June 1, 2021

Temp ( °F °C ) Dew Point ( °F °C ) Humidity (%) Winds ( mph kmh ) Pressure ( in mb ) Visibility ( mi km ) Precip ( " mm )
12:53 am 00:53 Clear 55 12.8 52 11.1 90 90 N N/A 30.22 1023 10 16 N/A
1:53 am 01:53 Clear 55 12.8 53 11.7 93 93 N N/A 30.21 1023 10 16 N/A
2:53 am 02:53 Clear 54 12.2 52 11.1 93 93 N N/A 30.22 1023 10 16 N/A
3:53 am 03:53 Clear 54 12.2 52 11.1 93 93 N N/A 30.22 1023 10 16 N/A
4:53 am 04:53 Clear 54 12.2 52 11.1 93 93 N N/A 30.22 1023 10 16 N/A
5:53 am 05:53 Clear 54 12.2 52 11.1 93 93 N N/A 30.22 1023 8 13 N/A
6:53 am 06:53 Sunny 54 12.2 53 11.7 97 97 N N/A 30.22 1024 7 11 N/A
7:53 am 07:53 Sunny 57 13.9 55 12.8 93 93 N N/A 30.24 1024 10 16 N/A
8:53 am 08:53 Sunny 61 16.1 56 13.3 84 84 N N/A 30.25 1024 10 16 N/A
9:53 am 09:53 Sunny 65 18.3 56 13.3 73 73 N N/A 30.25 1024 10 16 N/A
10:53 am 10:53 Sunny 70 21.1 55 12.8 59 59 E 3 6 30.24 1024 10 16 N/A
11:53 am 11:53 Sunny 73 22.8 54 12.2 51 51 N N/A 30.23 1024 10 16 N/A
12:53 pm 12:53 Sunny 74 23.3 50 10 43 43 NW 3 6 30.22 1023 10 16 N/A
1:53 pm 13:53 Mostly Sunny 75 23.9 53 11.7 46 46 N N/A 30.21 1023 10 16 N/A
2:53 pm 14:53 Partly Cloudy 75 23.9 53 11.7 46 46 VRB 3 6 30.19 1022 10 16 N/A
3:53 pm 15:53 Sunny 76 24.4 53 11.7 45 45 VRB 3 6 30.18 1022 10 16 N/A
4:53 pm 16:53 Sunny 75 23.9 54 12.2 48 48 S 5 7 30.18 1022 10 16 N/A
5:53 pm 17:53 Sunny 73 22.8 53 11.7 50 50 SW 3 6 30.17 1022 10 16 N/A
6:53 pm 18:53 Sunny 71 21.7 56 13.3 59 59 N N/A 30.16 1021 10 16 N/A
7:53 pm 19:53 Mostly Cloudy 69 20.6 59 15 70 70 N N/A 30.16 1021 10 16 N/A
8:53 pm 20:53 Cloudy 66 18.9 57 13.9 73 73 N N/A 30.15 1021 10 16 N/A
9:53 pm 21:53 Cloudy with Light Rain 67 19.4 58 14.4 73 73 WSW 3 6 30.15 1021 10 16 0.00 0.00
10:53 pm 22:53 Cloudy 65 18.3 60 15.6 84 84 N N/A 30.16 1021 10 16 0.00 0.00
11:53 pm 23:53 Cloudy with Light Rain 64 17.8 61 16.1 90 90 N N/A 30.15 1021 10 16 0.00 0.00

Powered by AerisWeather